Location: D�pe
(52.6057°N, 8.1808°E)
Time: 06:49:00
(UTC+00:00)

USA 308 - Pass Details

Date: 29 October 2020
Orbit: 571 x 578 km, 54.0° (Epoch: 30 November)

Event Time Altitude Azimuth Distance (km) Brightness Sun altitude
Rises 17:03:23 0° 288° (WNW) 2,790 7.6 -9.8°
Reaches altitude 10° 17:05:40 10° 286° (WNW) 1,888 6.7 -10.1°
Maximum altitude 17:09:56 69° 203° (SSW) 618 3.2 -10.7°
Drops below altitude 10° 17:14:11 10° 121° (ESE) 1,877 5.1 -11.4°
Enters shadow 17:14:14 10° 121° (ESE) 1,897 5.1 -11.4°
